contact:dominique.lefevre@mio.osupytheas.fr, maurice.libes@osupytheas.fr, didier.mallarino@osupytheas.fr
Project:EMSO http://www.emso-fr.org/EMSO-France
Depth: 2436.0 m
Title:EMSO Ligure Ouest : Data MII capteur AQUADOPP
Date,Latitude,Longitude,X_East,Y_North,Z_Up,Amplitude_X,Amplitude_Y,Amplitude_Z,Batterie,SoundSpeed,Heading,Pitch,Roll,Pressure,TIS,Speed,Direction
, degrees North, degrees East, m.s-1, m.s-1,m.s-1, 1, 1, 1, Volt, m.s-1, degree, degree, degree, dbar, degree_C, m.s-1, degree
2022-12-01T01:04:02,42.805,6.029,-0.015,-0.018,-0.068,105.0,103.0,102.0,13.3,1505.1,330.2,-0.8,1.9,2471.576,13.27,0.023,219.8
2022-12-01T01:07:03,42.805,6.029,0.007,-0.018,-0.043,104.0,102.0,102.0,13.3,1505.2,323.2,-0.8,1.8,2471.537,13.28,0.019,158.8
2022-12-01T01:10:03,42.805,6.029,0.002,-0.004,-0.031,104.0,102.0,101.0,13.3,1505.2,319.0,-0.8,1.8,2471.428,13.28,0.004,153.4
2022-12-01T01:13:03,42.805,6.029,0.012,-0.039,0.008,104.0,102.0,102.0,13.4,1505.2,328.5,-0.8,1.8,2471.306,13.28,0.04,162.9
2022-12-01T01:16:03,42.805,6.029,0.0,-0.014,-0.053,103.0,103.0,103.0,13.3,1505.2,332.4,-0.8,1.8,2471.293,13.28,0.014,180.0
2022-12-01T01:19:03,42.805,6.029,0.022,-0.008,-0.038,104.0,102.0,102.0,13.4,1505.2,324.0,-0.8,1.8,2471.244,13.28,0.023,110.0
2022-12-01T01:22:03,42.805,6.029,0.02,-0.007,-0.025,103.0,103.0,101.0,13.4,1505.2,330.6,-0.8,1.8,2471.206,13.28,0.021,109.3
2022-12-01T01:25:03,42.805,6.029,0.009,-0.016,-0.049,103.0,103.0,101.0,13.3,1505.2,321.2,-0.8,1.8,2471.197,13.28,0.018,150.6
2022-12-01T01:28:03,42.805,6.029,-0.018,-0.012,-0.052,103.0,102.0,101.0,13.4,1505.2,324.5,-0.7,1.8,2471.185,13.28,0.021,236.3
2022-12-01T01:31:03,42.805,6.029,-0.009,-0.004,-0.023,103.0,103.0,101.0,13.4,1505.2,328.9,-0.8,1.8,2471.159,13.28,0.009,246.0
2022-12-01T01:34:03,42.805,6.029,0.027,-0.028,-0.043,102.0,102.0,101.0,13.4,1505.2,324.7,-0.8,1.8,2471.151,13.28,0.038,136.0
2022-12-01T01:37:03,42.805,6.029,-0.009,0.001,-0.019,104.0,102.0,102.0,13.4,1505.2,328.3,-0.8,1.9,2471.141,13.28,0.009,276.3
2022-12-01T01:40:03,42.805,6.029,0.009,0.0,-0.022,102.0,104.0,102.0,13.3,1505.2,318.3,-0.7,1.9,2471.164,13.28,0.009,90.0
2022-12-01T01:43:03,42.805,6.029,0.023,-0.014,-0.034,103.0,103.0,101.0,13.4,1505.2,333.8,-0.8,1.8,2471.119,13.28,0.026,121.3
2022-12-01T01:46:03,42.805,6.029,-0.003,-0.026,-0.044,102.0,103.0,101.0,13.4,1505.2,328.9,-0.7,1.8,2471.158,13.29,0.026,186.6
2022-12-01T01:49:03,42.805,6.029,0.0,-0.019,-0.056,103.0,103.0,101.0,13.4,1505.2,329.5,-0.8,1.8,2471.131,13.29,0.019,180.0
2022-12-01T01:52:03,42.805,6.029,0.018,-0.004,-0.044,103.0,102.0,101.0,13.4,1505.2,323.7,-0.7,1.8,2471.151,13.28,0.018,102.5
2022-12-01T01:55:03,42.805,6.029,-0.004,-0.007,-0.055,103.0,103.0,102.0,13.4,1505.2,321.6,-0.7,1.8,2471.136,13.28,0.008,209.7
2022-12-01T01:58:03,42.805,6.029,0.025,0.008,-0.03,103.0,102.0,102.0,13.4,1505.2,329.5,-0.7,1.8,2471.126,13.28,0.026,72.3
2022-12-01T02:04:03,42.805,6.029,0.012,-0.026,-0.065,102.0,102.0,102.0,13.4,1505.2,321.0,-0.8,1.8,2471.159,13.28,0.028,155.2
2022-12-01T02:07:03,42.805,6.029,-0.005,-0.024,-0.044,103.0,103.0,101.0,13.4,1505.2,332.6,-0.8,1.9,2471.151,13.28,0.024,191.8
2022-12-01T02:10:03,42.805,6.029,0.007,-0.01,-0.039,103.0,102.0,101.0,13.4,1505.2,318.2,-0.7,1.8,2471.117,13.28,0.012,145.0
2022-12-01T02:13:03,42.805,6.029,0.017,-0.012,-0.033,103.0,103.0,101.0,13.4,1505.2,328.2,-0.8,1.8,2471.139,13.28,0.02,125.2
2022-12-01T02:16:03,42.805,6.029,0.028,-0.02,-0.066,103.0,102.0,101.0,13.3,1505.2,329.1,-0.8,1.8,2471.097,13.28,0.034,125.5
2022-12-01T02:19:03,42.805,6.029,0.004,-0.017,-0.023,103.0,102.0,102.0,13.4,1505.2,331.5,-0.8,1.8,2471.128,13.28,0.017,166.8
2022-12-01T02:22:03,42.805,6.029,0.006,-0.009,-0.056,104.0,104.0,101.0,13.3,1505.2,330.2,-0.8,1.8,2471.156,13.28,0.01,146.3
2022-12-01T02:25:03,42.805,6.029,0.001,-0.016,-0.036,103.0,103.0,102.0,13.4,1505.2,330.7,-0.8,1.8,2471.111,13.28,0.016,176.4
2022-12-01T02:28:03,42.805,6.029,-0.004,-0.008,-0.012,104.0,102.0,101.0,13.3,1505.2,332.1,-0.8,1.8,2471.128,13.28,0.008,206.6
2022-12-01T02:31:03,42.805,6.029,0.016,-0.027,-0.055,103.0,102.0,101.0,13.3,1505.2,328.4,-0.8,1.8,2471.092,13.28,0.031,149.3
2022-12-01T02:34:03,42.805,6.029,0.012,-0.029,-0.032,102.0,103.0,102.0,13.4,1505.2,329.6,-0.8,1.8,2471.131,13.29,0.031,157.5
2022-12-01T02:37:03,42.805,6.029,0.017,-0.029,-0.065,103.0,102.0,101.0,13.4,1505.2,317.4,-0.8,1.8,2471.082,13.28,0.033,149.6
2022-12-01T02:40:03,42.805,6.029,-0.006,-0.02,-0.047,103.0,102.0,101.0,13.4,1505.2,327.2,-0.8,1.8,2471.079,13.28,0.02,196.7
2022-12-01T02:43:03,42.805,6.029,-0.008,-0.016,-0.056,101.0,103.0,101.0,13.3,1505.2,328.2,-0.8,1.8,2471.14,13.28,0.017,206.6
2022-12-01T02:46:03,42.805,6.029,-0.001,-0.033,-0.077,103.0,103.0,101.0,13.3,1505.2,326.7,-0.8,1.8,2471.131,13.28,0.033,181.7
2022-12-01T02:49:03,42.805,6.029,0.0,-0.006,-0.038,103.0,102.0,102.0,13.4,1505.2,319.8,-0.7,1.8,2471.106,13.28,0.006,180.0
2022-12-01T02:52:03,42.805,6.029,-0.008,-0.021,-0.053,103.0,103.0,101.0,13.4,1505.2,324.3,-0.8,1.8,2471.116,13.28,0.022,200.9
2022-12-01T02:55:03,42.805,6.029,0.0,-0.009,-0.049,103.0,101.0,101.0,13.4,1505.2,321.6,-0.7,1.8,2471.082,13.29,0.009,180.0
2022-12-01T02:58:03,42.805,6.029,-0.011,-0.014,-0.065,101.0,102.0,102.0,13.4,1505.2,329.5,-0.8,1.8,2471.101,13.28,0.017,218.2
2022-12-01T03:04:03,42.805,6.029,-0.023,-0.009,-0.039,102.0,103.0,101.0,13.4,1505.2,317.0,-0.8,1.8,2471.143,13.28,0.024,248.6
2022-12-01T03:07:03,42.805,6.029,-0.001,0.003,-0.046,102.0,102.0,100.0,13.4,1505.2,327.6,-0.7,1.8,2471.164,13.28,0.003,341.6
2022-12-01T03:10:03,42.805,6.029,-0.004,-0.011,-0.028,101.0,103.0,101.0,13.4,1505.2,331.1,-0.8,1.8,2471.147,13.28,0.011,200.0
2022-12-01T03:13:03,42.805,6.029,0.024,-0.029,-0.033,102.0,101.0,102.0,13.3,1505.2,317.3,-0.8,1.8,2471.129,13.28,0.037,140.4
2022-12-01T03:16:03,42.805,6.029,0.021,-0.016,-0.067,103.0,102.0,101.0,13.4,1505.2,323.5,-0.7,1.8,2471.103,13.28,0.026,127.3
2022-12-01T03:19:03,42.805,6.029,-0.018,-0.012,-0.051,103.0,102.0,102.0,13.4,1505.2,319.6,-0.8,1.8,2471.109,13.28,0.021,236.3
2022-12-01T03:22:03,42.805,6.029,0.007,-0.023,-0.042,103.0,102.0,101.0,13.4,1505.2,332.0,-0.8,1.8,2471.13,13.29,0.024,163.1
2022-12-01T03:25:03,42.805,6.029,0.005,-0.02,-0.047,103.0,103.0,102.0,13.4,1505.2,334.8,-0.8,1.8,2471.101,13.28,0.02,166.0
2022-12-01T03:28:03,42.805,6.029,0.0,-0.007,-0.038,103.0,102.0,101.0,13.4,1505.2,333.4,-0.7,1.8,2471.108,13.28,0.007,180.0
2022-12-01T03:31:03,42.805,6.029,-0.017,-0.017,-0.057,101.0,102.0,103.0,13.4,1505.2,322.9,-0.7,1.8,2471.129,13.28,0.024,225.0
2022-12-01T03:34:03,42.805,6.029,0.006,-0.022,-0.066,103.0,102.0,101.0,13.3,1505.2,321.2,-0.7,1.8,2471.153,13.28,0.022,164.7
2022-12-01T03:37:03,42.805,6.029,0.022,-0.01,-0.062,102.0,102.0,101.0,13.4,1505.2,320.5,-0.8,1.8,2471.088,13.29,0.024,114.4
2022-12-01T03:40:03,42.805,6.029,0.001,-0.017,-0.062,102.0,102.0,101.0,13.4,1505.2,324.0,-0.7,1.8,2471.103,13.29,0.017,176.6
2022-12-01T03:43:03,42.805,6.029,0.001,-0.027,-0.054,102.0,103.0,101.0,13.4,1505.2,325.7,-0.8,1.8,2471.134,13.28,0.027,177.9
2022-12-01T03:46:03,42.805,6.029,0.0,0.0,-0.048,102.0,103.0,101.0,13.3,1505.2,336.2,-0.7,1.8,2471.118,13.28,0.0,0.0
2022-12-01T03:49:03,42.805,6.029,-0.001,-0.026,-0.06,102.0,102.0,101.0,13.4,1505.2,320.9,-0.7,1.8,2471.135,13.28,0.026,182.2
2022-12-01T03:52:03,42.805,6.029,0.02,-0.024,-0.025,102.0,103.0,102.0,13.4,1505.2,318.3,-0.8,1.8,2471.079,13.28,0.031,140.2
2022-12-01T03:55:03,42.805,6.029,0.001,0.003,-0.022,102.0,101.0,102.0,13.3,1505.2,328.7,-0.7,1.8,2471.086,13.28,0.003,18.4
2022-12-01T03:58:03,42.805,6.029,0.008,-0.033,-0.069,101.0,102.0,101.0,13.4,1505.2,331.5,-0.7,1.8,2471.1,13.28,0.033,166.4
2022-12-01T04:04:03,42.805,6.029,0.01,-0.025,-0.037,102.0,102.0,101.0,13.3,1505.2,321.4,-0.8,1.9,2471.148,13.28,0.026,158.2
2022-12-01T04:07:03,42.805,6.029,-0.014,-0.014,-0.055,102.0,102.0,101.0,13.4,1505.2,323.5,-0.8,1.8,2471.14,13.28,0.019,225.0
2022-12-01T04:10:03,42.805,6.029,-0.006,-0.016,-0.038,102.0,102.0,102.0,13.4,1505.2,328.6,-0.7,1.8,2471.152,13.28,0.017,200.6
2022-12-01T04:13:03,42.805,6.029,0.023,-0.016,-0.061,102.0,102.0,100.0,13.4,1505.2,315.9,-0.8,1.9,2471.138,13.28,0.028,124.8
2022-12-01T04:16:03,42.805,6.029,0.018,-0.01,-0.036,101.0,102.0,101.0,13.3,1505.2,325.0,-0.7,1.8,2471.145,13.28,0.02,119.1
2022-12-01T04:19:03,42.805,6.029,0.01,-0.029,-0.092,102.0,101.0,101.0,13.4,1505.2,317.7,-0.8,1.8,2471.126,13.28,0.03,161.0
2022-12-01T04:22:03,42.805,6.029,0.04,-0.034,-0.044,102.0,103.0,99.0,13.3,1505.2,323.6,-0.8,1.8,2471.114,13.28,0.052,130.4
2022-12-01T04:25:03,42.805,6.029,-0.011,-0.024,-0.027,102.0,101.0,101.0,13.4,1505.2,324.1,-0.8,1.8,2471.147,13.28,0.026,204.6
2022-12-01T04:28:03,42.805,6.029,0.007,-0.044,-0.073,100.0,103.0,101.0,13.4,1505.2,333.8,-0.7,1.8,2471.143,13.28,0.044,171.0
2022-12-01T04:31:03,42.805,6.029,0.002,-0.02,-0.043,101.0,101.0,101.0,13.4,1505.2,336.1,-0.7,1.8,2471.129,13.28,0.02,174.3
2022-12-01T04:34:03,42.805,6.029,0.005,-0.012,-0.07,102.0,101.0,101.0,13.3,1505.2,326.1,-0.8,1.8,2471.093,13.28,0.013,157.4
2022-12-01T04:37:03,42.805,6.029,0.003,-0.018,-0.032,101.0,102.0,100.0,13.4,1505.2,319.0,-0.8,1.8,2471.09,13.28,0.018,170.5
2022-12-01T04:40:03,42.805,6.029,0.005,-0.022,-0.047,102.0,101.0,100.0,13.4,1505.2,337.6,-0.8,1.8,2471.126,13.28,0.022,167.2
2022-12-01T04:43:03,42.805,6.029,0.03,-0.031,-0.078,102.0,102.0,101.0,13.4,1505.2,322.4,-0.8,1.8,2471.105,13.28,0.043,135.9
2022-12-01T04:46:03,42.805,6.029,0.003,-0.015,-0.053,102.0,102.0,100.0,13.3,1505.2,325.8,-0.8,1.8,2471.073,13.28,0.015,168.7
2022-12-01T04:49:03,42.805,6.029,0.034,-0.016,-0.057,101.0,102.0,100.0,13.3,1505.2,325.9,-0.8,1.8,2471.108,13.28,0.037,115.2
2022-12-01T04:52:03,42.805,6.029,0.013,-0.011,-0.035,101.0,101.0,100.0,13.4,1505.2,330.5,-0.8,1.8,2471.088,13.28,0.017,130.2
2022-12-01T04:55:03,42.805,6.029,0.01,-0.01,-0.031,101.0,102.0,100.0,13.4,1505.2,316.4,-0.8,1.8,2471.053,13.28,0.014,135.0
2022-12-01T04:58:03,42.805,6.029,0.0,-0.028,-0.063,101.0,101.0,100.0,13.3,1505.2,335.9,-0.8,1.8,2471.06,13.28,0.028,180.0
2022-12-01T05:04:03,42.805,6.029,0.02,-0.006,-0.051,101.0,101.0,101.0,13.3,1505.2,319.4,-0.8,1.8,2471.108,13.28,0.02,106.7
2022-12-01T05:07:03,42.805,6.029,0.014,-0.02,-0.05,101.0,101.0,100.0,13.4,1505.2,323.7,-0.8,1.8,2471.056,13.28,0.024,145.0
2022-12-01T05:10:03,42.805,6.029,0.006,-0.026,-0.043,102.0,101.0,100.0,13.3,1505.2,324.4,-0.8,1.8,2471.054,13.28,0.026,167.0
2022-12-01T05:13:03,42.805,6.029,0.005,-0.012,-0.059,101.0,101.0,100.0,13.4,1505.2,335.4,-0.8,1.8,2471.039,13.28,0.013,157.4
2022-12-01T05:16:03,42.805,6.029,-0.021,-0.011,-0.026,103.0,101.0,100.0,13.4,1505.2,336.5,-0.8,1.8,2471.066,13.28,0.023,242.4
2022-12-01T05:19:03,42.805,6.029,-0.009,-0.019,-0.045,102.0,102.0,100.0,13.3,1505.2,330.8,-0.7,1.8,2471.059,13.28,0.021,205.3
2022-12-01T05:22:03,42.805,6.029,0.003,-0.025,-0.036,102.0,101.0,100.0,13.4,1505.2,317.0,-0.8,1.8,2471.044,13.28,0.025,173.2
2022-12-01T05:25:03,42.805,6.029,0.029,-0.031,-0.046,102.0,102.0,100.0,13.3,1505.2,321.0,-0.8,1.8,2471.012,13.28,0.042,136.9
2022-12-01T05:28:03,42.805,6.029,0.024,-0.016,-0.005,101.0,101.0,100.0,13.4,1505.2,326.3,-0.8,1.8,2471.049,13.28,0.028,123.7
2022-12-01T05:31:03,42.805,6.029,0.014,-0.031,-0.017,101.0,100.0,99.0,13.4,1505.2,321.0,-0.8,1.8,2471.066,13.28,0.034,155.7
2022-12-01T05:34:03,42.805,6.029,-0.001,-0.032,-0.087,100.0,103.0,100.0,13.4,1505.2,330.3,-0.8,1.8,2471.036,13.28,0.032,181.8
2022-12-01T05:37:03,42.805,6.029,-0.018,-0.004,-0.05,102.0,101.0,100.0,13.4,1505.2,330.4,-0.8,1.8,2471.017,13.28,0.018,257.5
2022-12-01T05:40:03,42.805,6.029,0.034,-0.024,-0.049,101.0,101.0,101.0,13.4,1505.2,323.7,-0.7,1.8,2470.989,13.28,0.041,125.2
2022-12-01T05:43:03,42.805,6.029,0.0,-0.03,-0.065,101.0,101.0,100.0,13.4,1505.2,330.6,-0.8,1.8,2471.031,13.28,0.03,180.0
2022-12-01T05:46:03,42.805,6.029,0.006,-0.045,-0.088,101.0,101.0,101.0,13.4,1505.2,316.4,-0.8,1.8,2471.039,13.28,0.045,172.4
2022-12-01T05:49:03,42.805,6.029,0.006,-0.024,-0.046,102.0,101.0,100.0,13.4,1505.2,328.7,-0.8,1.8,2471.006,13.28,0.024,166.0
2022-12-01T05:52:03,42.805,6.029,0.012,-0.015,-0.052,102.0,101.0,101.0,13.3,1505.2,320.3,-0.8,1.8,2471.027,13.28,0.019,141.3
2022-12-01T05:55:03,42.805,6.029,0.005,-0.008,-0.032,101.0,101.0,101.0,13.3,1505.2,326.4,-0.7,1.8,2471.008,13.28,0.009,148.0
2022-12-01T05:58:03,42.805,6.029,-0.009,-0.028,-0.059,101.0,102.0,101.0,13.4,1505.2,336.2,-0.8,1.8,2471.015,13.28,0.029,197.8
2022-12-01T06:04:03,42.805,6.029,-0.006,-0.025,-0.062,102.0,100.0,101.0,13.4,1505.2,325.3,-0.8,1.8,2471.054,13.28,0.025,193.5
2022-12-01T06:07:03,42.805,6.029,-0.001,0.002,-0.038,101.0,101.0,100.0,13.4,1505.2,320.6,-0.8,1.8,2471.065,13.28,0.002,333.4
2022-12-01T06:10:03,42.805,6.029,0.019,-0.024,-0.07,100.0,100.0,101.0,13.4,1505.2,321.8,-0.7,1.8,2471.025,13.28,0.03,141.6
2022-12-01T06:13:03,42.805,6.029,0.012,-0.021,-0.072,101.0,102.0,100.0,13.4,1505.2,323.7,-0.8,1.8,2471.074,13.28,0.024,150.3
2022-12-01T06:16:03,42.805,6.029,0.009,-0.001,-0.03,103.0,101.0,101.0,13.3,1505.2,328.2,-0.8,1.8,2471.044,13.28,0.009,96.3
2022-12-01T06:19:03,42.805,6.029,0.013,-0.01,-0.036,100.0,102.0,101.0,13.4,1505.2,319.7,-0.7,1.8,2471.038,13.28,0.016,127.6
2022-12-01T06:22:03,42.805,6.029,0.012,-0.039,-0.064,101.0,100.0,101.0,13.4,1505.2,334.8,-0.8,1.8,2471.004,13.28,0.04,162.9
2022-12-01T06:25:03,42.805,6.029,0.011,-0.025,-0.086,101.0,101.0,101.0,13.4,1505.2,318.6,-0.8,1.8,2471.04,13.28,0.027,156.3
2022-12-01T06:28:03,42.805,6.029,0.036,-0.031,-0.032,100.0,103.0,100.0,13.4,1505.2,331.0,-0.8,1.8,2471.049,13.28,0.047,130.7
2022-12-01T06:31:03,42.805,6.029,0.02,-0.027,-0.036,101.0,100.0,101.0,13.4,1505.2,322.1,-0.8,1.8,2471.029,13.28,0.033,143.5
2022-12-01T06:34:03,42.805,6.029,-0.005,-0.017,-0.047,101.0,100.0,100.0,13.3,1505.2,323.6,-0.8,1.8,2470.995,13.28,0.017,196.4
2022-12-01T06:37:03,42.805,6.029,-0.002,-0.017,-0.055,101.0,101.0,101.0,13.3,1505.2,329.9,-0.8,1.8,2470.957,13.28,0.017,186.7
2022-12-01T06:40:03,42.805,6.029,0.035,-0.032,-0.058,101.0,102.0,101.0,13.4,1505.2,325.3,-0.8,1.8,2471.033,13.28,0.047,132.4
2022-12-01T06:43:03,42.805,6.029,0.013,-0.005,-0.046,101.0,101.0,101.0,13.4,1505.2,323.4,-0.8,1.8,2471.007,13.28,0.013,111.0
2022-12-01T06:46:03,42.805,6.029,0.029,-0.038,-0.063,100.0,101.0,101.0,13.4,1505.2,321.3,-0.7,1.8,2471.011,13.28,0.047,142.7
2022-12-01T06:49:03,42.805,6.029,0.021,-0.028,-0.059,101.0,101.0,101.0,13.4,1505.2,324.3,-0.8,1.8,2471.04,13.28,0.035,143.1
2022-12-01T06:52:03,42.805,6.029,-0.007,-0.028,-0.045,100.0,100.0,101.0,13.3,1505.2,325.4,-0.8,1.8,2471.04,13.28,0.028,194.0
2022-12-01T06:55:03,42.805,6.029,0.008,-0.027,-0.065,101.0,101.0,101.0,13.3,1505.2,331.7,-0.8,1.8,2470.992,13.28,0.028,163.5
2022-12-01T06:58:03,42.805,6.029,0.02,-0.019,-0.007,100.0,100.0,100.0,13.4,1505.2,327.7,-0.8,1.8,2471.028,13.28,0.027,133.5
2022-12-01T07:04:03,42.805,6.029,0.016,-0.042,-0.044,101.0,100.0,100.0,13.4,1505.2,329.9,-0.8,1.8,2471.071,13.28,0.044,159.1
2022-12-01T07:07:03,42.805,6.029,0.014,-0.009,-0.046,102.0,101.0,100.0,13.4,1505.2,330.0,-0.8,1.8,2471.052,13.28,0.016,122.7
2022-12-01T07:10:03,42.805,6.029,0.022,-0.022,-0.069,100.0,102.0,101.0,13.3,1505.2,324.4,-0.8,1.8,2471.049,13.28,0.031,135.0
2022-12-01T07:13:03,42.805,6.029,0.013,-0.012,-0.032,101.0,100.0,100.0,13.4,1505.2,327.5,-0.7,1.8,2471.039,13.28,0.017,132.7
2022-12-01T07:16:03,42.805,6.029,0.012,-0.031,-0.055,102.0,99.0,100.0,13.4,1505.2,319.9,-0.7,1.8,2471.018,13.28,0.033,158.8
2022-12-01T07:19:03,42.805,6.029,0.016,-0.02,-0.048,101.0,101.0,101.0,13.3,1505.2,330.1,-0.8,1.8,2471.074,13.28,0.025,141.3
2022-12-01T07:22:03,42.805,6.029,0.007,-0.024,-0.052,101.0,101.0,100.0,13.3,1505.2,324.7,-0.8,1.8,2471.021,13.28,0.025,163.7
2022-12-01T07:25:03,42.805,6.029,0.024,-0.021,-0.064,101.0,101.0,100.0,13.3,1505.2,327.5,-0.8,1.8,2470.981,13.28,0.031,131.2
2022-12-01T07:28:03,42.805,6.029,0.015,-0.031,-0.08,101.0,101.0,100.0,13.4,1505.2,324.1,-0.8,1.8,2471.039,13.28,0.034,154.2
2022-12-01T07:31:03,42.805,6.029,0.02,-0.045,-0.031,101.0,101.0,100.0,13.3,1505.2,330.9,-0.8,1.8,2471.07,13.28,0.049,156.0
2022-12-01T07:34:03,42.805,6.029,0.017,-0.028,-0.055,100.0,101.0,101.0,13.4,1505.2,323.7,-0.7,1.8,2471.028,13.28,0.032,148.7
2022-12-01T07:37:03,42.805,6.029,0.019,-0.027,-0.045,101.0,101.0,100.0,13.3,1505.2,322.3,-0.8,1.8,2471.013,13.28,0.033,144.9
2022-12-01T07:40:03,42.805,6.029,0.013,-0.028,-0.054,101.0,101.0,101.0,13.4,1505.2,323.4,-0.8,1.8,2471.045,13.28,0.03,155.1
2022-12-01T07:43:03,42.805,6.029,0.031,-0.017,-0.073,102.0,102.0,101.0,13.3,1505.2,319.4,-0.8,1.8,2471.034,13.28,0.035,118.7
2022-12-01T07:46:03,42.805,6.029,0.0,-0.011,-0.057,102.0,102.0,101.0,13.4,1505.2,323.7,-0.7,1.8,2470.987,13.28,0.011,180.0
2022-12-01T07:49:03,42.805,6.029,0.0,-0.019,-0.066,101.0,101.0,100.0,13.3,1505.2,326.8,-0.8,1.8,2471.012,13.28,0.019,180.0
2022-12-01T07:52:03,42.805,6.029,0.008,-0.022,-0.062,101.0,102.0,101.0,13.4,1505.2,321.0,-0.8,1.8,2471.035,13.28,0.023,160.0
2022-12-01T07:55:03,42.805,6.029,0.012,-0.013,-0.077,102.0,102.0,101.0,13.4,1505.2,330.3,-0.8,1.8,2471.073,13.28,0.017,137.3
2022-12-01T07:58:03,42.805,6.029,0.012,-0.029,-0.046,101.0,101.0,101.0,13.3,1505.2,325.6,-0.8,1.8,2471.046,13.28,0.031,157.5
2022-12-01T08:04:03,42.805,6.029,0.031,-0.026,-0.049,103.0,101.0,100.0,13.4,1505.2,320.1,-0.8,1.8,2471.075,13.28,0.04,130.0
2022-12-01T08:07:03,42.805,6.029,0.013,-0.037,-0.071,101.0,100.0,101.0,13.3,1505.2,323.2,-0.8,1.8,2471.041,13.28,0.039,160.6
2022-12-01T08:10:03,42.805,6.029,0.001,-0.014,-0.046,101.0,101.0,101.0,13.4,1505.2,329.5,-0.8,1.8,2471.03,13.28,0.014,175.9
2022-12-01T08:13:03,42.805,6.029,-0.018,-0.003,-0.038,102.0,101.0,100.0,13.3,1505.2,327.3,-0.8,1.8,2471.023,13.28,0.018,260.5
2022-12-01T08:16:03,42.805,6.029,0.013,-0.043,-0.097,101.0,102.0,100.0,13.4,1505.2,318.8,-0.8,1.8,2471.037,13.28,0.044,163.2
2022-12-01T08:19:03,42.805,6.029,0.0,-0.021,-0.048,101.0,102.0,101.0,13.4,1505.2,327.2,-0.7,1.8,2471.02,13.28,0.021,180.0
2022-12-01T08:22:03,42.805,6.029,0.014,-0.02,-0.026,103.0,102.0,100.0,13.4,1505.2,320.5,-0.8,1.8,2471.011,13.28,0.024,145.0
2022-12-01T08:25:03,42.805,6.029,0.013,-0.029,-0.071,103.0,100.0,102.0,13.4,1505.2,321.1,-0.7,1.8,2471.013,13.28,0.031,155.9
2022-12-01T08:28:03,42.805,6.029,-0.009,-0.015,-0.041,102.0,102.0,101.0,13.4,1505.2,323.2,-0.8,1.8,2471.038,13.28,0.017,211.0
2022-12-01T08:31:03,42.805,6.029,0.006,-0.027,-0.048,100.0,102.0,101.0,13.3,1505.2,316.5,-0.8,1.8,2471.077,13.28,0.027,167.5
2022-12-01T08:34:03,42.805,6.029,-0.017,-0.043,-0.053,101.0,101.0,102.0,13.4,1505.2,322.3,-0.8,1.8,2471.033,13.28,0.046,201.6
2022-12-01T08:37:03,42.805,6.029,0.03,-0.029,-0.054,101.0,100.0,101.0,13.4,1505.2,326.5,-0.8,1.8,2471.039,13.28,0.041,134.0
2022-12-01T08:40:03,42.805,6.029,-0.006,-0.034,-0.062,101.0,101.0,101.0,13.3,1505.2,321.8,-0.8,1.8,2471.008,13.28,0.034,190.0
2022-12-01T08:43:03,42.805,6.029,0.028,-0.02,-0.059,102.0,101.0,100.0,13.3,1505.2,320.7,-0.8,1.8,2471.045,13.28,0.034,125.5
2022-12-01T08:46:03,42.805,6.029,0.028,-0.016,-0.028,101.0,101.0,100.0,13.4,1505.2,317.4,-0.8,1.8,2471.049,13.28,0.032,119.7
2022-12-01T08:49:03,42.805,6.029,0.017,-0.015,-0.055,101.0,100.0,101.0,13.3,1505.2,320.1,-0.8,1.9,2471.01,13.28,0.022,131.4
2022-12-01T08:52:03,42.805,6.029,0.01,-0.021,-0.037,102.0,102.0,100.0,13.4,1505.2,334.8,-0.8,1.8,2471.045,13.28,0.023,154.5
2022-12-01T08:55:03,42.805,6.029,0.023,-0.042,-0.056,103.0,101.0,101.0,13.4,1505.2,321.5,-0.8,1.8,2471.004,13.28,0.047,151.3
2022-12-01T08:58:03,42.805,6.029,0.004,-0.022,-0.07,103.0,100.0,101.0,13.4,1505.2,324.2,-0.8,1.8,2471.037,13.28,0.022,169.7
2022-12-01T09:04:03,42.805,6.029,0.03,-0.051,-0.049,102.0,101.0,101.0,13.4,1505.2,325.0,-0.8,1.8,2471.117,13.28,0.059,149.5
2022-12-01T09:07:03,42.805,6.029,-0.017,-0.029,-0.049,101.0,101.0,101.0,13.4,1505.2,334.5,-0.8,1.8,2471.076,13.28,0.033,210.4
2022-12-01T09:10:03,42.805,6.029,0.019,-0.02,-0.043,101.0,102.0,100.0,13.4,1505.2,325.4,-0.8,1.8,2471.124,13.28,0.027,136.5
2022-12-01T09:13:03,42.805,6.029,0.005,-0.047,-0.077,102.0,101.0,100.0,13.4,1505.2,328.7,-0.7,1.8,2471.073,13.28,0.047,173.9
2022-12-01T09:16:03,42.805,6.029,-0.002,-0.032,-0.039,102.0,102.0,100.0,13.3,1505.2,330.4,-0.8,1.8,2471.052,13.28,0.032,183.6
2022-12-01T09:19:03,42.805,6.029,0.012,-0.018,-0.035,101.0,101.0,101.0,13.4,1505.2,331.5,-0.8,1.8,2471.084,13.28,0.021,146.3
2022-12-01T09:22:03,42.805,6.029,0.02,-0.021,-0.07,101.0,102.0,101.0,13.4,1505.2,331.5,-0.8,1.8,2471.065,13.28,0.028,136.4
2022-12-01T09:25:03,42.805,6.029,-0.002,-0.033,-0.047,101.0,102.0,101.0,13.4,1505.2,326.8,-0.8,1.8,2471.086,13.28,0.033,183.5
2022-12-01T09:28:03,42.805,6.029,-0.011,-0.033,-0.073,101.0,101.0,100.0,13.3,1505.2,327.6,-0.8,1.8,2471.077,13.28,0.034,198.4
2022-12-01T09:31:03,42.805,6.029,0.022,-0.04,-0.054,102.0,101.0,101.0,13.4,1505.2,324.7,-0.8,1.8,2471.089,13.28,0.045,151.2
2022-12-01T09:34:03,42.805,6.029,-0.003,-0.013,-0.057,103.0,102.0,99.0,13.4,1505.2,330.5,-0.7,1.8,2471.049,13.28,0.013,193.0
2022-12-01T09:37:03,42.805,6.029,0.023,-0.034,-0.065,102.0,101.0,101.0,13.4,1505.2,326.7,-0.8,1.8,2471.056,13.28,0.041,145.9
2022-12-01T09:40:03,42.805,6.029,0.004,-0.024,-0.038,101.0,102.0,100.0,13.4,1505.2,323.9,-0.8,1.8,2471.054,13.28,0.024,170.5
2022-12-01T09:43:03,42.805,6.029,-0.005,-0.018,-0.056,101.0,101.0,102.0,13.3,1505.2,324.5,-0.8,1.8,2471.105,13.28,0.018,195.5
2022-12-01T09:46:03,42.805,6.029,0.005,-0.01,-0.066,103.0,101.0,99.0,13.3,1505.2,321.4,-0.7,1.8,2471.059,13.28,0.011,153.4
2022-12-01T09:49:03,42.805,6.029,0.001,-0.027,-0.042,101.0,101.0,101.0,13.4,1505.2,327.5,-0.8,1.8,2471.089,13.28,0.027,177.9
2022-12-01T09:52:03,42.805,6.029,0.01,-0.018,-0.061,101.0,101.0,101.0,13.3,1505.2,318.2,-0.8,1.8,2471.121,13.28,0.02,150.9
2022-12-01T09:55:03,42.805,6.029,0.001,-0.026,-0.043,102.0,102.0,100.0,13.4,1505.2,327.5,-0.7,1.8,2471.061,13.28,0.026,177.8
2022-12-01T09:58:03,42.805,6.029,0.008,-0.014,-0.03,101.0,103.0,101.0,13.3,1505.2,323.4,-0.8,1.8,2471.088,13.28,0.016,150.3
2022-12-01T10:04:03,42.805,6.029,0.004,-0.037,-0.093,101.0,101.0,100.0,13.4,1505.2,322.0,-0.8,1.8,2471.135,13.28,0.037,173.8
2022-12-01T10:07:03,42.805,6.029,-0.028,-0.014,-0.071,101.0,101.0,100.0,13.4,1505.2,327.6,-0.8,1.8,2471.148,13.28,0.031,243.4
2022-12-01T10:10:03,42.805,6.029,0.01,-0.016,-0.069,101.0,102.0,100.0,13.4,1505.2,320.6,-0.8,1.8,2471.14,13.28,0.018,148.0
2022-12-01T10:13:03,42.805,6.029,0.008,-0.061,-0.084,102.0,101.0,101.0,13.4,1505.2,321.9,-0.8,1.8,2471.161,13.28,0.061,172.5
2022-12-01T10:16:03,42.805,6.029,-0.014,-0.024,-0.09,100.0,102.0,101.0,13.4,1505.2,334.8,-0.8,1.8,2471.148,13.28,0.027,210.3
2022-12-01T10:19:03,42.805,6.029,-0.014,-0.018,-0.055,102.0,101.0,101.0,13.4,1505.2,322.3,-0.7,1.8,2471.139,13.28,0.022,217.9
2022-12-01T10:22:03,42.805,6.029,0.011,-0.03,-0.068,101.0,103.0,100.0,13.3,1505.2,328.7,-0.7,1.8,2471.145,13.28,0.031,159.9
2022-12-01T10:25:03,42.805,6.029,0.012,-0.007,-0.076,102.0,101.0,100.0,13.4,1505.2,330.2,-0.8,1.8,2471.109,13.28,0.013,120.3
2022-12-01T10:28:03,42.805,6.029,0.017,-0.044,-0.088,101.0,101.0,101.0,13.3,1505.2,325.4,-0.7,1.8,2471.117,13.28,0.047,158.9
2022-12-01T10:31:03,42.805,6.029,0.0,-0.024,-0.056,101.0,102.0,100.0,13.3,1505.2,328.0,-0.7,1.8,2471.105,13.28,0.024,180.0
2022-12-01T10:34:03,42.805,6.029,-0.013,-0.037,-0.055,101.0,101.0,101.0,13.3,1505.2,319.5,-0.7,1.8,2471.11,13.28,0.039,199.4
2022-12-01T10:37:03,42.805,6.029,0.019,-0.011,-0.067,100.0,101.0,101.0,13.4,1505.2,326.9,-0.8,1.9,2471.117,13.28,0.021,120.1
2022-12-01T10:40:03,42.805,6.029,0.007,-0.014,-0.055,102.0,102.0,100.0,13.4,1505.2,330.8,-0.8,1.9,2471.092,13.28,0.015,153.4
2022-12-01T10:43:03,42.805,6.029,-0.009,-0.03,-0.054,102.0,102.0,101.0,13.4,1505.2,319.2,-0.8,1.8,2471.113,13.28,0.031,196.7
2022-12-01T10:46:03,42.805,6.029,-0.01,-0.019,-0.04,100.0,102.0,100.0,13.4,1505.2,327.4,-0.8,1.8,2471.083,13.28,0.021,207.8
2022-12-01T10:49:03,42.805,6.029,-0.004,-0.02,-0.045,103.0,100.0,101.0,13.3,1505.2,328.2,-0.8,1.8,2471.107,13.28,0.02,191.3
2022-12-01T10:52:03,42.805,6.029,-0.017,-0.026,-0.019,102.0,101.0,101.0,13.4,1505.2,326.6,-0.8,1.9,2471.129,13.29,0.031,213.2